Voltar ao catálogo

SL-8 DEB *

AtivoLEO
NORAD 14345·DEBRIS·🇷🇺 Russia

Lançado Oct 11, 1979 de Plesetsk Cosmodrome

Loading…

Próximas Passagens (próximas 24 horas)

TLE

AtualizadoSource: Space-Track

Época: Sep 14, 2026, 10:27 UTC

1 14345U 79089C   26257.43570800  .00002404  00000-0  29989-3 0  9999
2 14345  74.0176 135.7919 0006988 164.9847   9.6424 14.83013802292096

Acompanhe SL-8 DEB * em tempo real com AllMySat

Download on the App Store